FW8606 Weather Reports


time (UTC)temp
C
wind
direction
speed
KPH
gust
KPH
rain 1hr
cm
rain 24hr
cm
rain mn
cm
humidity
%
barometer
mb
20260905224555 34 288 4.8 8.0 0.00 0.00 0.00 49 1011.7
20260905224055 35 291 1.6 1.6 0.00 0.00 0.00 46 1011.3
20260905223553 35 287 0.0 1.6 0.00 0.00 0.00 47 1011.7
20260905223049 35 287 0.0 0.0 0.00 0.00 0.00 47 1011.7
20260905222548 35 297 1.6 1.6 0.00 0.00 0.00 45 1011.3
20260905222044 35 287 0.0 1.6 0.00 0.00 0.00 44 1011.3
20260905221540 35 309 1.6 1.6 0.00 0.00 0.00 43 1011.7
20260905221036 36 324 3.2 4.8 0.00 0.00 0.00 41 1011.3
20260905220531 36 324 3.2 4.8 0.00 0.00 0.00 41 1011.3
20260905220027 36 266 3.2 4.8 0.00 0.00 0.00 39 1011.3
20260905215526 36 269 4.8 6.4 0.00 0.00 0.00 39 1011.3
20260905215023 37 315 8.0 11.3 0.00 0.00 0.00 41 1011.3
20260905214518 37 224 4.8 4.8 0.00 0.00 0.00 39 1011.3
20260905214014 37 325 3.2 4.8 0.00 0.00 0.00 39 1011.3
20260905213509 37 288 4.8 4.8 0.00 0.00 0.00 38 1011.3
20260905213004 37 249 6.4 8.0 0.00 0.00 0.00 38 1011.3
20260905212459 38 244 3.2 4.8 0.00 0.00 0.00 37 1011.3
20260905211958 37 319 0.0 1.6 0.00 0.00 0.00 37 1011.3
20260905211454 37 248 4.8 6.4 0.00 0.00 0.00 38 1011.3
20260905210949 38 293 4.8 8.0 0.00 0.00 0.00 39 1011.7
20260905210445 37 220 4.8 6.4 0.00 0.00 0.00 38 1011.7
20260905205944 37 200 4.8 6.4 0.00 0.00 0.00 39 1011.7
20260905205439 37 271 1.6 1.6 0.00 0.00 0.00 38 1012.0
20260905204937 37 272 3.2 4.8 0.00 0.00 0.00 38 1012.0
20260905204434 37 272 1.6 1.6 0.00 0.00 0.00 38 1012.0
20260905203933 37 270 3.2 4.8 0.00 0.00 0.00 39 1012.0
20260905203428 37 316 8.0 8.0 0.00 0.00 0.00 41 1012.4
20260905202924 37 261 1.6 4.8 0.00 0.00 0.00 39 1012.4
20260905202419 36 315 1.6 1.6 0.00 0.00 0.00 42 1012.4
20260905201914 36 280 3.2 4.8 0.00 0.00 0.00 40 1012.4
20260905201410 37 255 8.0 8.0 0.00 0.00 0.00 40 1012.4
20260905200909 37 290 4.8 6.4 0.00 0.00 0.00 40 1012.4
20260905200405 38 261 6.4 8.0 0.00 0.00 0.00 39 1012.7
20260905195903 38 277 4.8 6.4 0.00 0.00 0.00 38 1012.7
20260905195359 37 303 3.2 4.8 0.00 0.00 0.00 41 1012.7
20260905194854 37 299 4.8 11.3 0.00 0.00 0.00 39 1012.7
20260905194354 37 318 0.0 0.0 0.00 0.00 0.00 40 1013.0
20260905193854 38 187 4.8 6.4 0.00 0.00 0.00 39 1012.7
20260905193348 37 300 3.2 6.4 0.00 0.00 0.00 41 1013.0
20260905192844 37 284 1.6 1.6 0.00 0.00 0.00 40 1013.0
20260905192340 37 244 3.2 6.4 0.00 0.00 0.00 41 1013.0
20260905191839 38 28 4.8 4.8 0.00 0.00 0.00 40 1013.0
20260905191337 37 296 3.2 6.4 0.00 0.00 0.00 40 1013.0
20260905190831 37 289 3.2 6.4 0.00 0.00 0.00 44 1013.0
20260905190331 37 304 8.0 11.3 0.00 0.00 0.00 43 1013.0
20260905185829 36 296 3.2 6.4 0.00 0.00 0.00 44 1013.5
20260905185325 37 255 4.8 6.4 0.00 0.00 0.00 42 1013.0
20260905184824 37 288 3.2 4.8 0.00 0.00 0.00 43 1013.5
20260905184323 37 225 4.8 4.8 0.00 0.00 0.00 42 1013.8
20260905183822 36 305 1.6 4.8 0.00 0.00 0.00 42 1013.8
20260905183318 36 336 4.8 6.4 0.00 0.00 0.00 43 1013.8
20260905182812 36 268 4.8 6.4 0.00 0.00 0.00 42 1013.8
20260905182312 37 292 4.8 6.4 0.00 0.00 0.00 44 1013.8
20260905181807 36 241 3.2 4.8 0.00 0.00 0.00 46 1013.8
20260905181306 36 284 4.8 6.4 0.00 0.00 0.00 44 1013.8
20260905180800 36 290 1.6 1.6 0.00 0.00 0.00 44 1014.2
20260905180255 36 250 3.2 4.8 0.00 0.00 0.00 46 1014.2
20260905175750 36 225 3.2 4.8 0.00 0.00 0.00 46 1013.8
20260905175245 35 323 1.6 1.6 0.00 0.00 0.00 47 1014.2
20260905174740 35 257 3.2 4.8 0.00 0.00 0.00 48 1014.2
20260905174236 35 289 1.6 1.6 0.00 0.00 0.00 48 1014.2
20260905173732 35 310 3.2 4.8 0.00 0.00 0.00 50 1014.5
20260905173227 35 302 1.6 1.6 0.00 0.00 0.00 49 1014.2
20260905172721 35 311 0.0 1.6 0.00 0.00 0.00 48 1014.5
20260905172221 35 312 3.2 4.8 0.00 0.00 0.00 47 1014.5
20260905171716 36 139 3.2 4.8 0.00 0.00 0.00 44 1014.8
20260905171212 36 293 4.8 6.4 0.00 0.00 0.00 43 1014.8
20260905170710 36 327 4.8 6.4 0.00 0.00 0.00 45 1014.8
20260905170210 35 302 0.0 1.6 0.00 0.00 0.00 49 1015.2
20260905165709 35 327 0.0 1.6 0.00 0.00 0.00 49 1014.8
20260905165205 34 335 4.8 4.8 0.00 0.00 0.00 52 1015.2
20260905164659 35 321 3.2 4.8 0.00 0.00 0.00 51 1015.2
20260905164159 35 341 0.0 0.0 0.00 0.00 0.00 50 1014.8
20260905163655 35 343 1.6 1.6 0.00 0.00 0.00 51 1015.2
20260905163151 36 296 1.6 1.6 0.00 0.00 0.00 50 1014.8
20260905162647 35 285 1.6 1.6 0.00 0.00 0.00 48 1015.2
20260905162146 35 298 1.6 1.6 0.00 0.00 0.00 51 1015.2
20260905161641 35 310 1.6 1.6 0.00 0.00 0.00 51 1014.8
20260905161139 35 353 3.2 4.8 0.00 0.00 0.00 52 1015.2
20260905160638 35 310 0.0 0.0 0.00 0.00 0.00 51 1015.2
20260905160132 35 327 3.2 4.8 0.00 0.00 0.00 52 1015.2
20260905155633 35 339 0.0 1.6 0.00 0.00 0.00 53 1015.2
20260905155131 35 26 0.0 1.6 0.00 0.00 0.00 51 1015.2
20260905154626 35 317 0.0 1.6 0.00 0.00 0.00 54 1015.5
20260905154122 35 334 6.4 6.4 0.00 0.00 0.00 53 1015.2
20260905153617 34 320 3.2 4.8 0.00 0.00 0.00 54 1015.5
20260905153112 35 322 0.0 1.6 0.00 0.00 0.00 54 1015.2
20260905152607 34 29 1.6 1.6 0.00 0.00 0.00 53 1015.2
20260905152102 35 290 0.0 1.6 0.00 0.00 0.00 54 1015.2
20260905151557 34 289 0.0 1.6 0.00 0.00 0.00 53 1015.5
20260905151052 33 299 0.0 0.0 0.00 0.00 0.00 57 1015.2
20260905150547 33 231 3.2 4.8 0.00 0.00 0.00 57 1015.5
20260905150045 32 299 0.0 0.0 0.00 0.00 0.00 60 1015.2
20260905145538 32 291 0.0 0.0 0.00 0.00 0.00 60 1015.8
20260905145038 32 295 1.6 1.6 0.00 0.00 0.00 61 1015.5
20260905144533 32 268 1.6 1.6 0.00 0.00 0.00 62 1015.2
20260905144032 32 319 0.0 0.0 0.00 0.00 0.00 64 1015.5
20260905143531 31 282 1.6 1.6 0.00 0.00 0.00 64 1015.2
20260905143027 32 274 1.6 1.6 0.00 0.00 0.00 63 1015.5
20260905142525 31 306 0.0 0.0 0.00 0.00 0.00 64 1015.5
20260905142021 31 325 3.2 4.8 0.00 0.00 0.00 68 1015.5
20260905141515 30 278 3.2 4.8 0.00 0.00 0.00 67 1015.5
20260905141012 30 312 1.6 1.6 0.00 0.00 0.00 66 1015.5
20260905140506 31 306 1.6 1.6 0.00 0.00 0.00 66 1015.5
20260905140005 30 332 0.0 0.0 0.00 0.00 0.00 68 1015.5
20260905135501 30 320 3.2 4.8 0.00 0.00 0.00 67 1015.8
20260905134956 30 294 1.6 1.6 0.00 0.00 0.00 66 1015.5
20260905134455 31 319 0.0 0.0 0.00 0.00 0.00 65 1015.5
20260905133954 30 319 0.0 0.0 0.00 0.00 0.00 70 1015.5
20260905133444 30 319 1.6 1.6 0.00 0.00 0.00 71 1015.8
20260905132943 29 319 0.0 0.0 0.00 0.00 0.00 74 1015.8
20260905132438 28 319 0.0 0.0 0.00 0.00 0.00 75 1015.8
20260905131933 28 315 1.6 1.6 0.00 0.00 0.00 74 1015.8
20260905131430 28 306 0.0 0.0 0.00 0.00 0.00 75 1015.5
20260905130929 28 330 0.0 0.0 0.00 0.00 0.00 79 1015.8
20260905130424 27 331 0.0 0.0 0.00 0.00 0.00 83 1015.8
20260905125923 27 344 0.0 0.0 0.00 0.00 0.00 88 1015.5
20260905125418 27 344 0.0 0.0 0.00 0.00 0.00 92 1015.5
20260905124914 26 345 0.0 0.0 0.00 0.00 0.00 92 1015.8
20260905124411 25 345 0.0 0.0 0.00 0.00 0.00 93 1015.8
20260905123910 25 345 0.0 0.0 0.00 0.00 0.00 93 1015.8
20260905123407 25 345 0.0 0.0 0.00 0.00 0.00 93 1015.8
20260905122902 25 345 0.0 0.0 0.00 0.00 0.00 93 1015.8
20260905122401 25 345 0.0 0.0 0.00 0.00 0.00 93 1015.8
20260905121857 24 345 0.0 0.0 0.00 0.00 0.00 93 1015.5
20260905121353 23 345 0.0 0.0 0.00 0.00 0.00 93 1015.5
20260905120852 23 346 0.0 0.0 0.00 0.00 0.00 93 1015.5
20260905120346 23 346 0.0 0.0 0.00 0.00 0.00 93 1015.5
20260905115842 23 346 0.0 0.0 0.00 0.00 0.00 93 1015.5
20260905115340 23 346 0.0 0.0 0.00 0.00 0.00 93 1015.2
20260905114835 23 346 0.0 0.0 0.00 0.00 0.00 93 1015.2
20260905114334 23 345 0.0 0.0 0.00 0.00 0.00 93 1015.2
20260905113834 23 345 0.0 0.0 0.00 0.00 0.00 93 1015.2
20260905113330 23 345 0.0 0.0 0.00 0.00 0.00 92 1015.2
20260905112825 23 345 0.0 0.0 0.00 0.00 0.00 92 1015.2
20260905112319 23 345 0.0 0.0 0.00 0.00 0.00 92 1015.2
20260905111815 23 345 0.0 0.0 0.00 0.00 0.00 92 1014.8
20260905111309 23 345 0.0 0.0 0.00 0.00 0.00 92 1014.8
20260905110808 23 345 0.0 0.0 0.00 0.00 0.00 92 1014.8
20260905110302 23 345 0.0 0.0 0.00 0.00 0.00 92 1014.8
20260905105758 23 345 0.0 0.0 0.00 0.00 0.00 92 1014.5
20260905105257 23 346 0.0 0.0 0.00 0.00 0.00 92 1014.8
20260905104751 23 346 0.0 0.0 0.00 0.00 0.00 92 1014.5
20260905104248 23 347 0.0 0.0 0.00 0.00 0.00 92 1014.5
20260905103747 23 347 0.0 0.0 0.00 0.00 0.00 92 1014.5
20260905103243 23 343 0.0 0.0 0.00 0.00 0.00 92 1014.8
20260905102738 23 343 0.0 0.0 0.00 0.00 0.00 92 1014.5
20260905102235 23 343 0.0 0.0 0.00 0.00 0.00 92 1014.5
20260905101734 23 340 0.0 0.0 0.00 0.00 0.00 92 1014.8
20260905101232 23 354 0.0 0.0 0.00 0.00 0.00 92 1014.5
20260905100728 23 354 0.0 0.0 0.00 0.00 0.00 92 1014.5
20260905100224 23 354 0.0 0.0 0.00 0.00 0.00 92 1014.5
20260905095724 23 354 0.0 0.0 0.00 0.00 0.00 92 1014.5
20260905095223 23 354 0.0 0.0 0.00 0.00 0.00 92 1014.2
20260905094718 23 354 0.0 0.0 0.00 0.00 0.00 92 1014.2
20260905094213 23 354 0.0 0.0 0.00 0.00 0.00 92 1014.5
20260905093707 23 0 0.0 0.0 0.00 0.00 0.00 92 1014.2
20260905093203 23 306 0.0 1.6 0.00 0.00 0.00 92 1014.5
20260905092659 23 305 0.0 0.0 0.00 0.00 0.00 92 1014.2
20260905092154 23 306 0.0 0.0 0.00 0.00 0.00 92 1014.2
20260905091653 23 306 0.0 0.0 0.00 0.00 0.00 92 1014.5
20260905091148 23 306 0.0 0.0 0.00 0.00 0.00 91 1014.2
20260905090648 23 306 0.0 0.0 0.00 0.00 0.00 91 1014.5
20260905090144 23 306 0.0 0.0 0.00 0.00 0.00 91 1014.2
20260905085642 23 306 0.0 0.0 0.00 0.00 0.00 91 1014.2
20260905085137 23 306 0.0 0.0 0.00 0.00 0.00 91 1014.2
20260905084637 23 306 0.0 0.0 0.00 0.00 0.00 91 1014.2
20260905084132 23 306 0.0 0.0 0.00 0.00 0.00 91 1014.2
20260905083626 23 306 0.0 0.0 0.00 0.00 0.00 91 1014.2
20260905083123 23 306 0.0 0.0 0.00 0.00 0.00 91 1013.8
20260905082618 24 306 0.0 0.0 0.00 0.00 0.00 91 1014.2
20260905082114 24 306 0.0 0.0 0.00 0.00 0.00 91 1014.2
20260905081614 24 306 0.0 0.0 0.00 0.00 0.00 91 1014.2
20260905081109 24 306 0.0 0.0 0.00 0.00 0.00 91 1014.5
20260905080609 24 306 0.0 0.0 0.00 0.00 0.00 90 1014.5
20260905075556 24 306 0.0 0.0 0.00 0.00 0.00 90 1014.5
20260905075051 24 306 0.0 0.0 0.00 0.00 0.00 90 1014.5
20260905074550 24 306 0.0 0.0 0.00 0.00 0.00 90 1014.5
20260905074046 24 306 0.0 0.0 0.00 0.00 0.00 90 1014.5
20260905073541 24 306 0.0 0.0 0.00 0.00 0.00 90 1014.2
20260905073037 24 306 0.0 0.0 0.00 0.00 0.00 90 1014.5
20260905072536 24 306 0.0 0.0 0.00 0.00 0.00 90 1014.5
20260905072032 24 306 0.0 0.0 0.00 0.00 0.00 90 1014.5
20260905071528 25 306 0.0 0.0 0.00 0.00 0.00 90 1014.5
20260905071028 25 306 0.0 0.0 0.00 0.00 0.00 90 1014.8
20260905070524 25 306 0.0 0.0 0.00 0.00 0.00 89 1014.5
20260905070020 25 306 0.0 0.0 0.00 0.00 0.00 89 1014.5
20260905065517 25 306 0.0 0.0 0.00 0.00 0.00 89 1014.5
20260905065013 25 306 0.0 0.0 0.00 0.00 0.00 89 1014.5
20260905064507 25 306 0.0 0.0 0.00 0.00 0.00 89 1014.5
20260905064002 25 306 0.0 0.0 0.00 0.00 0.00 89 1014.5
20260905063456 25 306 0.0 0.0 0.00 0.00 0.00 89 1014.8
20260905062953 25 306 0.0 0.0 0.00 0.00 0.00 88 1014.8
20260905062452 25 306 0.0 0.0 0.00 0.00 0.00 88 1014.8
20260905061948 25 306 0.0 0.0 0.00 0.00 0.00 88 1014.5
20260905061443 25 306 0.0 0.0 0.00 0.00 0.00 88 1014.8
20260905060942 25 306 0.0 0.0 0.00 0.00 0.00 88 1014.8
20260905060438 25 306 0.0 0.0 0.00 0.00 0.00 88 1014.8
20260905055937 25 306 0.0 0.0 0.00 0.00 0.00 87 1014.8
20260905055432 25 306 0.0 0.0 0.00 0.00 0.00 87 1014.5
20260905054932 25 306 0.0 0.0 0.00 0.00 0.00 87 1014.8
20260905054427 25 306 0.0 0.0 0.00 0.00 0.00 87 1014.8
20260905053927 25 306 0.0 0.0 0.00 0.00 0.00 87 1014.8
20260905053422 26 306 0.0 0.0 0.00 0.00 0.00 86 1014.8
20260905052918 26 306 0.0 0.0 0.00 0.00 0.00 86 1014.8
20260905052417 26 306 0.0 0.0 0.00 0.00 0.00 85 1014.8
20260905051916 26 306 0.0 0.0 0.00 0.00 0.00 85 1014.8
20260905051413 26 306 0.0 0.0 0.00 0.00 0.00 85 1014.8
20260905050910 26 306 0.0 0.0 0.00 0.00 0.00 85 1014.8
20260905050405 26 305 0.0 0.0 0.00 0.00 0.00 85 1014.8
20260905045901 26 305 0.0 0.0 0.00 0.00 0.00 85 1014.8
20260905045356 26 306 0.0 0.0 0.00 0.00 0.00 85 1014.8
20260905044851 25 306 0.0 0.0 0.00 0.00 0.00 85 1014.8
20260905044346 26 306 0.0 0.0 0.00 0.00 0.00 84 1014.8
20260905043845 26 306 0.0 0.0 0.00 0.00 0.00 84 1014.8
20260905043339 26 306 0.0 0.0 0.00 0.00 0.00 84 1015.2
20260905042835 26 306 0.0 0.0 0.00 0.00 0.00 84 1015.2
20260905042335 26 306 0.0 0.0 0.00 0.00 0.00 83 1015.2
20260905041829 26 306 0.0 0.0 0.00 0.00 0.00 83 1015.2
20260905041325 26 306 0.0 0.0 0.00 0.00 0.00 83 1015.2
20260905040820 26 306 0.0 0.0 0.00 0.00 0.00 83 1015.2
20260905040318 26 306 0.0 0.0 0.00 0.00 0.00 82 1015.2
20260905035813 26 306 0.0 0.0 0.00 0.00 0.00 82 1015.2
20260905035309 26 306 0.0 0.0 0.00 0.00 0.00 81 1015.2
20260905034805 26 306 0.0 0.0 0.00 0.00 0.00 81 1015.2
20260905034300 26 306 0.0 0.0 0.00 0.00 0.00 81 1015.2
20260905033759 26 306 0.0 0.0 0.00 0.00 0.00 82 1015.2
20260905033254 26 306 0.0 0.0 0.00 0.00 0.00 81 1015.2
20260905032754 26 306 0.0 0.0 0.00 0.00 0.00 80 1015.2
20260905032249 26 306 0.0 0.0 0.00 0.00 0.00 80 1015.2
20260905031744 27 306 0.0 0.0 0.00 0.00 0.00 80 1015.2
20260905031240 27 306 0.0 0.0 0.00 0.00 0.00 80 1015.2
20260905030735 27 306 0.0 0.0 0.00 0.00 0.00 79 1015.2
20260905030230 27 306 0.0 0.0 0.00 0.00 0.00 79 1015.2
20260905025725 27 306 0.0 0.0 0.00 0.00 0.00 78 1015.2
20260905025220 27 306 0.0 0.0 0.00 0.00 0.00 78 1014.8
20260905024716 27 305 0.0 0.0 0.00 0.00 0.00 77 1015.2
20260905024212 27 286 0.0 0.0 0.00 0.00 0.00 77 1015.2
20260905023706 27 285 0.0 0.0 0.00 0.00 0.00 76 1015.2
20260905023206 27 285 0.0 0.0 0.00 0.00 0.00 76 1015.2
20260905022705 27 285 0.0 0.0 0.00 0.00 0.00 76 1015.2
20260905022201 28 285 0.0 0.0 0.00 0.00 0.00 75 1014.8
20260905021701 28 286 0.0 0.0 0.00 0.00 0.00 74 1014.8
20260905021156 28 285 0.0 0.0 0.00 0.00 0.00 74 1014.8
20260905020651 28 285 0.0 0.0 0.00 0.00 0.00 74 1014.8
20260905020146 28 285 0.0 1.6 0.00 0.00 0.00 73 1015.2
20260905015645 28 285 0.0 0.0 0.00 0.00 0.00 72 1014.8
20260905015139 28 285 0.0 0.0 0.00 0.00 0.00 72 1015.2
20260905014632 28 285 0.0 0.0 0.00 0.00 0.00 71 1014.8
20260905014128 28 285 0.0 0.0 0.00 0.00 0.00 71 1014.8
20260905013625 29 285 0.0 0.0 0.00 0.00 0.00 71 1014.8
20260905013121 29 285 0.0 0.0 0.00 0.00 0.00 70 1014.5
20260905012621 29 285 0.0 0.0 0.00 0.00 0.00 69 1014.8
20260905012117 30 285 0.0 0.0 0.00 0.00 0.00 69 1014.8
20260905011613 30 285 0.0 0.0 0.00 0.00 0.00 69 1014.5
20260905011109 30 285 0.0 0.0 0.00 0.00 0.00 69 1014.5
20260905010609 30 285 0.0 0.0 0.00 0.00 0.00 68 1014.5
20260905010105 30 285 0.0 0.0 0.00 0.00 0.00 67 1014.5
20260905005600 30 285 0.0 0.0 0.00 0.00 0.00 67 1014.2
20260905005055 30 285 0.0 0.0 0.00 0.00 0.00 66 1014.2
20260905004550 30 285 0.0 0.0 0.00 0.00 0.00 65 1014.2
20260905004045 30 285 0.0 0.0 0.00 0.00 0.00 64 1014.2
20260905003541 30 285 0.0 0.0 0.00 0.00 0.00 63 1014.2
20260905003036 30 285 0.0 0.0 0.00 0.00 0.00 63 1014.2
20260905002532 31 285 0.0 0.0 0.00 0.00 0.00 61 1014.2
20260905002032 31 285 0.0 0.0 0.00 0.00 0.00 60 1014.2
20260905001527 31 285 0.0 0.0 0.00 0.00 0.00 59 1014.2
20260905001020 32 285 0.0 0.0 0.00 0.00 0.00 59 1013.8
20260905000516 32 285 0.0 0.0 0.00 0.00 0.00 59 1014.2
20260905000013 33 285 0.0 0.0 0.00 0.00 0.00 55 1014.2
20260904235507 33 285 0.0 0.0 0.00 0.00 0.00 53 1014.2
20260904235006 33 285 0.0 0.0 0.00 0.00 0.00 53 1014.2
20260904234501 34 285 0.0 0.0 0.00 0.00 0.00 52 1014.2
20260904233957 35 285 0.0 0.0 0.00 0.00 0.00 51 1014.2
20260904233452 35 285 0.0 0.0 0.00 0.00 0.00 48 1014.2
20260904232948 35 285 0.0 1.6 0.00 0.00 0.00 47 1014.2
20260904232444 35 285 0.0 1.6 0.00 0.00 0.00 45 1013.8
20260904231940 35 284 0.0 1.6 0.00 0.00 0.00 44 1014.2
20260904231435 35 285 1.6 1.6 0.00 0.00 0.00 42 1013.8
20260904230931 36 286 1.6 1.6 0.00 0.00 0.00 43 1013.8
20260904230429 36 286 0.0 1.6 0.00 0.00 0.00 42 1013.8
20260904225925 36 296 1.6 1.6 0.00 0.00 0.00 42 1013.8
20260904225423 36 289 1.6 1.6 0.00 0.00 0.00 39 1014.2
20260904224917 36 292 0.0 1.6 0.00 0.00 0.00 39 1013.8